Location: G�ppingen
(48.7089°N, 9.6563°E)
Time: 05:04:46
(UTC+02:00)

M-CUBED/EXP-1 PRIME - Visible Passes

Search period start: 17 October 2019 00:00
Search period end: 27 October 2019 00:00
Orbit: 429 x 669 km, 101.7° (Epoch: 16 October)

Date Brightness Start Highest point End Pass type
(mag) Time Alt. Az. Time Alt. Az. Time Alt. Az.
17 Oct ? 04:38:07 10° NNE 04:38:37 13° NNE 04:38:37 13° NNE visible
17 Oct ? 06:13:23 10° NNW 06:14:19 14° NNW 06:14:19 14° NNW visible
18 Oct ? 04:33:38 10° NE 04:34:01 13° NE 04:34:01 13° NE visible
18 Oct ? 06:08:36 10° NNW 06:09:43 15° NNW 06:09:43 15° NNW visible
19 Oct ? 04:29:09 10° NE 04:29:25 12° NE 04:29:25 12° NE visible
19 Oct ? 06:03:51 10° N 06:05:06 17° NNW 06:05:06 17° NNW visible
20 Oct ? 04:24:40 10° NE 04:24:49 11° NE 04:24:49 11° NE visible
20 Oct ? 05:59:08 10° N 06:00:30 18° NNW 06:00:30 18° NNW visible
21 Oct ? 05:54:26 10° N 05:55:54 20° NNW 05:55:54 20° NNW visible
22 Oct ? 05:49:46 10° N 05:51:18 22° NNW 05:51:18 22° NNW visible
23 Oct ? 05:45:07 10° N 05:46:43 23° N 05:46:43 23° N visible
24 Oct ? 05:40:29 10° N 05:42:07 25° N 05:42:07 25° N visible
25 Oct ? 05:35:50 10° NNE 05:37:33 26° N 05:37:33 26° N visible
26 Oct ? 05:31:13 10° NNE 05:32:57 27° N 05:32:57 27° N visible
